Weather Service Report


606 
ASUS43 KTOP 241708
RWRKS 

WEATHER ROUNDUP FOR KANSAS
NATIONAL WEATHER SERVICE GOODLAND KS
1200 PM CDT SUN JUL 24 2016

NOTE:  "FAIR" INDICATES FEW OR NO CLOUDS BELOW 12,000 FEET WITH NO
SIGNIFICANT WEATHER AND/OR OBSTRUCTIONS TO VISIBILITY.

KSZ001>006-013>018-027>032-041>047-241800-
NORTHWEST KANSAS
  
CITY           SKY/WX    TMP DP  RH WIND       PRES   REMARKS
GOODLAND       SUNNY     85  59  41 E17       30.12R                  
HAYS           CLOUDY    88  64  45 E15       29.99F                  
HILL CITY      CLOUDY    78  71  79 CALM      30.01R                  
RUSSELL        MOSUNNY   90  68  48 NE10      29.98R                  
$$

KSZ061>065-074>080-084>089-241800-
SOUTHWEST KANSAS
  
CITY           SKY/WX    TMP DP  RH WIND       PRES   REMARKS
DODGE CITY     CLOUDY    88  66  48 CALM      30.00S                  
ELKHART          N/A     88  63  43 E10         N/A                   
GARDEN CITY    CLOUDY    89  69  51 SE8       30.01S                  
GREAT BEND     MOSUNNY   88  64  45 CALM      29.97F                  
LIBERAL        CLOUDY    84  64  51 NE7       30.05S                  
PRATT          CLOUDY    83  67  58 NW6       29.98R                  
$$

KSZ066>073-081>083-090>101-241800-
SOUTHEAST KANSAS
  
CITY           SKY/WX    TMP DP  RH WIND       PRES   REMARKS
CHANUTE        SUNNY     92  75  57 SW9       29.96S HX 103           
COFFEYVILLE    SUNNY     96  73  47 SW9       29.95F HX 105           
HUTCHINSON     CLOUDY    90  67  46 SW3       29.95R                  
MEDICINE LODGE   N/A     97  62  31 SW9       29.93S HX  98           
NEWTON         MOSUNNY   93  71  48 S8        29.96S HX 100           
PARSONS        SUNNY     94  73  50 S8        29.98R HX 103           
WICHITA INTL   MOSUNNY   98  67  36 S12       29.94S HX 102           
WICHITA JABRA  SUNNY     94  71  47 S10       29.95S HX 101           
WICHITA MCCONL SUNNY     94  69  43 SW9       29.95F HX 100           
WINFIELD       SUNNY     97  68  38 SW14      29.96F HX 102           
$$

KSZ007>012-019>026-033>040-048>060-102>105-241800-
NORTHEAST KANSAS
  
CITY           SKY/WX    TMP DP  RH WIND       PRES   REMARKS
CONCORDIA      MOSUNNY   77  71  82 W3        29.98R                  
EMPORIA        CLOUDY    93  69  45 W6        29.94F HX  98           
LAWRENCE       MOSUNNY   92  75  57 N5        29.93R HX 103           
MANHATTAN      CLOUDY    85  73  67 NE8       29.94R                  
MARYSVILLE     CLOUDY    86  72  62 N8        29.95S                  
OLATHE IND     SUNNY     93  71  48 VRB6      29.96R HX 100           
OLATHE EXE     SUNNY     91  71  51 W3        29.95S HX  97           
SALINA         CLOUDY    89  71  55 VRB6      29.95R HX  95           
TOPEKA BILLARD   N/A     90  75  61 N9        29.94R HX 100           
TOPEKA FORBES  CLOUDY    92  75  57 NE3       29.95R HX 103           
$$
  

Return to Home page


Western Regional Climate Center, wrcc@dri.edu